Location: Big Meadows
(38.5260°N, 78.4400°W)
Time: 21:38:44
(UTC-04:00)

Daily predictions for brighter satellites

Satellite Brightness Start Highest point End
(mag) Time Altitude Azimuth Time Altitude Azimuth Time Altitude Azimuth
COSMOS 2455 2.8 20:55:01 10° SSW 21:01:00 74° ESE 21:07:01 10° NNE
Cosmos 1666 2.7 20:58:15 10° N 21:02:11 88° E 21:06:04 10° S
ERS-1 Rocket 3.2 20:59:03 10° SSE 21:03:55 54° ENE 21:08:49 10° N
CZ-4 DEB 3.0 21:02:50 10° S 21:06:03 71° W 21:09:16 10° NNW
BREEZE-M DEB (TANK) 1.7 21:08:59 10° NW 21:11:37 80° SW 21:13:40 11° SE
Resurs 01 Rocket 4.4 21:08:54 10° SW 21:11:44 17° W 21:14:34 10° NW
SJ-11-01 4.4 21:09:58 10° SSE 21:14:33 61° ENE 21:19:10 10° N
Envisat 3.5 21:17:16 10° SE 21:22:01 42° ENE 21:26:48 10° N
GEOS 3 Rocket 3.7 21:18:20 10° SE 21:23:34 71° NE 21:28:46 10° NNW
Cosmos 407 Rocket 4.1 21:19:33 10° SSE 21:24:17 35° E 21:28:59 10° NE
Milstar 3 Cent rocket 4.3 21:21:28 10° WSW 21:27:29 19° SW 21:31:42 10° S
Cosmos 1515 3.7 21:29:17 10° S 21:33:05 61° E 21:36:54 10° NNE
CZ-2C R/B 1.6 21:31:39 10° S 21:33:48 39° W 21:35:58 10° NNW
Cosmos 1602 Rocket 4.4 21:30:28 10° SSW 21:34:50 53° W 21:39:12 10° N
SL-27 R/B 4.4 21:36:55 13° E 21:36:55 13° E 21:38:19 10° ENE
Cosmos 1825 Rocket 3.8 21:33:57 10° SSE 21:38:13 49° E 21:42:30 10° NNE
Cosmos 1066 Rocket 4.4 21:35:34 10° S 21:41:06 55° E 21:46:47 10° NNE
USA 186 4.3 21:41:36 10° SW 21:43:06 14° W 21:44:34 10° WNW
ALOS 4.1 21:41:19 10° SSW 21:45:20 29° W 21:49:24 10° NW
Cosmos 1943 Rocket 3.4 21:42:08 10° N 21:46:50 27° ENE 21:50:21 15° ESE
Lacrosse 4 Rocket 1.2 21:43:12 10° SSW 21:47:13 85° ESE 21:51:20 10° NNE
Cosmos 1812 Rocket 4.0 21:43:08 10° NNW 21:47:30 64° W 21:51:52 10° S
Atlas Centaur 2 3.2 21:48:00 10° WSW 21:54:34 45° S 22:00:12 18° ESE
SeaSat 1 3.0 21:52:49 20° SE 21:56:00 47° ENE 22:00:43 10° NNW
Cosmos 1992 Rocket 4.1 21:50:51 10° NNW 21:56:04 75° WSW 22:00:17 16° S
Cosmos 1943 3.5 21:51:38 10° SSW 21:57:16 73° WNW 22:02:59 10° NNE
H-2A R/B 2.9 21:53:44 10° S 21:57:51 47° W 22:02:06 10° NNW
ISS -0.2 21:55:57 10° WNW 21:58:07 16° NNW 22:00:17 10° NNE
Meteor 1-22 Rocket 4.5 21:52:42 10° N 21:58:17 57° ENE 22:02:15 20° SSE
USA 81 4.1 22:07:58 10° N 22:13:17 85° W 22:17:13 18° S
CZ-4B R/B 3.5 22:09:24 10° NNE 22:14:35 77° ESE 22:19:12 14° S
CZ-4 R/B 4.1 22:10:35 10° NNE 22:15:30 53° E 22:18:13 25° SSE
Cosmos 1939 Rocket 4.3 22:12:46 11° SSW 22:16:23 36° W 22:20:13 10° NNW
Cosmos 1953 3.6 22:13:12 10° NNE 22:16:32 25° ENE 22:17:07 24° E
PSLV R/B 3.7 22:16:12 10° WNW 22:19:43 64° N 22:21:15 30° E
Terra 3.2 22:19:03 20° E 22:20:31 24° ENE 22:24:15 10° NNE
ARGOS 3.3 22:18:00 28° SE 22:20:45 58° ENE 22:26:06 10° N
ATLAS 3B R/B 3.4 22:14:27 10° SW 22:22:06 65° NW 22:29:35 10° NNE
Cosmos 1346 Rocket 3.2 22:19:41 14° SSW 22:22:56 59° W 22:26:51 10° N
SPOT 5 3.3 22:21:02 19° S 22:23:56 50° W 22:28:08 10° NNW
USA 245 4.0 22:21:16 26° SSE 22:24:32 80° ENE 22:29:23 10° N
Cosmos 1842 3.3 22:25:37 44° SE 22:26:31 56° E 22:30:22 10° NNE
Cosmos 1953 Rocket 4.0 22:23:11 14° SSW 22:26:55 62° W 22:31:20 10° N
Cosmos-2242 3.6 22:22:46 10° N 22:26:59 43° E 22:28:02 36° ESE
MetOp-B 4.3 22:24:19 23° S 22:27:45 70° WSW 22:33:07 10° NNW
Cosmos 1634 Rocket 4.2 22:22:19 10° NNW 22:28:26 68° W 22:33:08 18° S
Cosmos 1140 Rocket 3.7 22:26:31 31° SSE 22:28:42 50° ESE 22:33:45 10° NNE
H-2A R/B 2.8 22:33:42 30° ESE 22:35:11 37° ENE 22:39:50 10° N
NOSS 3-2 (A) 4.4 22:35:29 27° ESE 22:35:29 27° ESE 22:40:41 10° NE
Meteor 1-21 4.3 22:31:59 17° S 22:36:29 84° W 22:42:21 10° N
Cosmos 1607 4.0 22:32:57 18° S 22:37:33 57° ESE 22:43:38 10° NE
Cosmos 676 Rocket 4.5 22:34:30 10° SSW 22:39:46 62° WNW 22:45:03 10° NNE
USA 234 3.6 22:37:09 24° ESE 22:41:11 58° NE 22:47:35 10° NW
Cosmos 2369 Rocket 3.2 22:36:05 10° NW 22:41:20 40° WSW 22:44:34 21° SSW
SPOT 1/Viking Rocket 3.7 22:41:55 31° S 22:44:21 68° WSW 22:49:30 10° NNW
YAOGAN 6 3.4 22:43:54 35° SW 22:45:00 46° W 22:48:38 10° NNW
Cosmos 2279 Rocket 4.0 22:40:46 10° N 22:47:02 84° W 22:50:14 31° S
Cosmos 614 Rocket 4.2 22:48:02 44° SE 22:48:46 47° ESE 22:53:45 10° NNE
SL-08 RB Rocket 3.6 22:51:27 49° S 22:52:40 81° WSW 22:57:12 10° NNW
NOAA 11 4.2 22:51:03 38° S 22:53:12 79° WSW 22:58:39 10° NNW
Cosmos 1766 4.0 22:50:19 10° NNW 22:54:12 50° W 22:55:14 39° SW
SAR-Lupe-2 3.9 22:58:16 54° NE 22:58:16 54° NE 23:01:29 10° N
Cosmos 1340 4.3 23:00:50 24° ENE 23:00:50 24° ENE 23:02:54 10° NNE
Spot 2 4.5 22:55:02 10° NNE 22:59:55 58° ESE 23:00:35 53° SE
Meteor 2-5 Rocket 4.4 23:00:28 36° ESE 23:01:06 37° E 23:06:21 10° NNE
CARTOSAT-1 3.5 23:02:00 62° ESE 23:02:20 65° ENE 23:06:38 10° N
Cosmos 1544 4.2 22:59:03 10° N 23:01:55 33° NE 23:01:55 33° NE
CZ-4C R/B 2.8 23:03:35 36° E 23:03:35 36° E 23:08:11 10° NE
Cosmos 1758 3.2 23:01:14 10° N 23:05:22 83° W 23:05:36 78° SSW
USA 238 DEB 4.0 23:02:37 10° SW 23:09:41 70° NW 23:16:45 10° NNE
USA 238 4.0 23:02:42 10° SW 23:09:46 70° NW 23:16:50 10° NNE
SL-27 R/B 4.3 23:10:36 22° W 23:11:44 27° WNW 23:14:38 10° N
DMSP B5D2-2 4.0 23:11:47 10° NNE 23:17:05 83° ESE 23:18:07 59° S
IGS 5A 3.4 23:19:53 83° N 23:19:53 83° N 23:23:55 10° NNW
Cosmos 1470 3.7 23:16:22 10° N 23:19:20 39° NE 23:19:20 39° NE
Cosmos 1805 3.6 23:16:44 10° NNW 23:20:29 60° W 23:20:29 60° W
COSMOS 2487 3.5 23:24:51 43° N 23:24:51 43° N 23:27:23 10° NNE
COSMOS 2406 3.8 23:21:23 18° SW 23:25:34 54° WNW 23:31:12 10° NNE
Cosmos 1943 Rocket 3.0 23:25:30 10° NW 23:30:40 40° WSW 23:31:53 35° SW
Cosmos 1842 Rocket 3.7 23:28:48 10° NNW 23:33:08 65° W 23:33:08 65° W
Cosmos 2082 Rocket 4.1 23:34:49 16° ENE 23:34:49 16° ENE 23:36:57 10° ENE
SeaSat 1 4.2 23:32:37 20° SW 23:33:41 21° WSW 23:37:24 10° WNW
Cosmos 1656 Rocket 3.6 23:31:54 10° NNW 23:37:35 78° WSW 23:38:15 68° SSW
Cosmos 2208 Rocket 4.4 23:37:59 10° NNW 23:42:58 49° WSW 23:43:24 48° WSW
Atlas Centaur 2 3.8 23:37:04 10° WSW 23:42:50 32° SSW 23:42:50 32° SSW
NOSS 3-2 (C) 3.3 23:43:08 65° SSE 23:43:53 72° ESE 23:50:26 10° NE
Cosmos 1707 3.8 23:50:19 45° N 23:50:19 45° N 23:53:06 10° N
Cosmos 1953 4.4 23:49:56 10° NW 23:52:49 20° W 23:52:53 20° W
Cosmos 1092 Rocket 4.3 23:51:45 42° SW 23:53:41 60° W 23:59:54 10° N
